Greenville, AL

10:13 PM CDT on April 27, 2017 (GMT -0500)
Greenville Municipal

Weather History for KPRN - September, 2014

Change the Weather History Date:

Sunday, September 7, 2014

  Actual Average Record
Temperature  
Mean Temperature 80 °F -  
Max Temperature 90 °F 88 °F 101 °F (1954)
Min Temperature 71 °F 65 °F 53 °F (1988)
Cooling Degree Days 16    
Growing Degree Days 30 (Base 50)    
Moisture  
Dew Point 71 °F    
Average Humidity 84    
Maximum Humidity 94    
Minimum Humidity 55    
Precipitation  
Precipitation 1.57 in - - ()
Sea Level Pressure  
Sea Level Pressure 29.96 in    
Wind  
Wind Speed 3 mph (NW)    
Max Wind Speed 30 mph    
Max Gust Speed 44 mph    
Visibility 5 miles    
Events Fog , Rain , Thunderstorm    
Averages and records for this station are not official NWS values.
T = Trace of Precipitation, MM = Missing Value Source: NWS Daily Summary

Daily Weather History Graph

Daily Weather History Graph

Search for Another Location

Airport or City:

Trip Planner

Search our weather history database for the weather conditions in past years. The results will help you decide how hot, cold, wet, or windy it might be!

Date:

Astronomy

Sep. 07, 2014 Rise Set
Actual Time 6:25 AM CDT 7:02 PM CDT
Civil Twilight 6:00 AM CDT 7:27 PM CDT
Nautical Twilight 5:31 AM CDT 7:56 PM CDT
Astronomical Twilight 5:02 AM CDT 8:25 PM CDT
Moon 6:00 PM CDT (9/7) 4:41 AM CDT (9/7)
Length of Visible Light 13h 26m
Length of Day
12h 37m
Waxing Gibbous, 97% of the Moon is Illuminated
Sep 7
Waxing Gibbous
Sep 8
Full
Sep 15
Last Quarter
Sep 24
New
Oct 1
First Quarter

Hourly Weather History & Observations

Time (CDT) Temp. Heat Index Dew Point Humidity Pressure Visibility Wind Dir Wind Speed Gust Speed Precip Events Conditions
12:56 AM 73.9 °F - 71.1 °F 91% 29.96 in 4.0 mi Calm Calm - N/A   Clear
1:56 AM 73.9 °F - 72.0 °F 93% 29.96 in 5.0 mi Calm Calm - N/A   Clear
2:56 AM 73.9 °F - 71.1 °F 91% 29.96 in 4.0 mi Calm Calm - N/A   Clear
3:56 AM 73.0 °F - 71.1 °F 93% 29.95 in 4.0 mi West 3.5 mph - N/A   Partly Cloudy
4:56 AM 73.9 °F - 71.1 °F 91% 29.94 in 5.0 mi Calm Calm - N/A   Clear
5:56 AM 73.0 °F - 71.1 °F 93% 29.96 in 7.0 mi WNW 3.5 mph - N/A   Clear
6:56 AM 73.9 °F - 71.1 °F 91% 29.97 in 5.0 mi Calm Calm - N/A   Clear
7:56 AM 78.1 °F - 73.0 °F 84% 29.97 in 8.0 mi North 3.5 mph - N/A   Clear
8:56 AM 80.1 °F 84.5 °F 73.9 °F 81% 29.98 in 9.0 mi Calm Calm - N/A   Clear
9:56 AM 84.9 °F 93.3 °F 75.0 °F 72% 29.99 in 10.0 mi Calm Calm - N/A   Clear
10:56 AM 88.0 °F 97.5 °F 75.0 °F 65% 30.00 in 10.0 mi North 4.6 mph - N/A   Scattered Clouds
11:56 AM 88.0 °F 94.7 °F 72.0 °F 59% 29.99 in 10.0 mi Calm Calm - N/A   Clear
12:56 PM 90.0 °F 96.9 °F 72.0 °F 55% 29.95 in 10.0 mi Calm Calm - N/A   Clear
1:26 PM 89.6 °F 98.2 °F 73.4 °F 59% 29.96 in 10.0 mi WNW 4.6 mph - N/A Thunderstorm Thunderstorm
2:03 PM 87.8 °F 93.8 °F 71.6 °F 58% 29.94 in 10.0 mi WNW 3.5 mph - N/A   Partly Cloudy
2:10 PM 87.8 °F 93.8 °F 71.6 °F 58% 29.94 in 10.0 mi WNW 4.6 mph - N/A Thunderstorm Thunderstorm
2:27 PM 78.8 °F - 73.4 °F 83% 29.95 in 1.5 mi Variable 5.8 mph - 0.06 in Rain , Thunderstorm Light Thunderstorms and Rain
2:37 PM 78.8 °F - 73.4 °F 83% 29.97 in 1.0 mi East 19.6 mph - 0.24 in Rain , Thunderstorm Heavy Thunderstorms and Rain
2:44 PM 75.2 °F - 73.4 °F 94% 29.96 in 0.2 mi East 20.7 mph 25.3 mph 0.77 in Fog , Rain , Thunderstorm Heavy Thunderstorms and Rain
2:48 PM 73.4 °F - 71.6 °F 94% 29.97 in 0.2 mi ESE 29.9 mph 43.7 mph 1.10 in Fog , Rain , Thunderstorm Heavy Thunderstorms and Rain
3:06 PM 73.4 °F - 66.2 °F 78% 30.00 in - Variable 5.8 mph 29.9 mph 1.37 in Rain , Thunderstorm Heavy Thunderstorms and Rain
3:15 PM 75.2 °F - 66.2 °F 73% 29.98 in 0.2 mi West 10.4 mph 26.5 mph 1.57 in Rain , Thunderstorm Heavy Thunderstorms and Rain
3:34 PM 71.6 °F - 68.0 °F 88% 29.95 in 1.0 mi SW 6.9 mph - 1.57 in Rain , Thunderstorm Heavy Thunderstorms and Rain
3:42 PM 71.6 °F - 68.0 °F 88% 29.95 in 2.0 mi SW 5.8 mph - 1.57 in Rain , Thunderstorm Heavy Thunderstorms and Rain
3:56 PM 72.0 °F - 70.0 °F 93% 29.91 in 3.0 mi Calm Calm - 1.57 in Rain , Thunderstorm Thunderstorms and Rain
5:00 PM 73.4 °F - 69.8 °F 88% 29.92 in - WSW 3.5 mph - 0.00 in Thunderstorm Thunderstorm
5:37 PM 73.4 °F - 71.6 °F 94% 29.93 in 7.0 mi NNW 3.5 mph - 0.00 in   Clear
5:56 PM 73.9 °F - 70.0 °F 87% 29.93 in 10.0 mi WNW 3.5 mph - 0.00 in   Clear
6:56 PM 73.0 °F - 71.1 °F 93% 29.94 in 6.0 mi Calm Calm - N/A   Partly Cloudy
7:56 PM 73.9 °F - 71.1 °F 91% 29.96 in 5.0 mi Calm Calm - 0.00 in Rain Light Rain
8:56 PM 73.0 °F - 71.1 °F 93% 29.98 in 3.0 mi Calm Calm - 0.00 in   Clear
9:56 PM 73.0 °F - 71.1 °F 93% 29.99 in 5.0 mi Calm Calm - N/A   Partly Cloudy
10:18 PM 73.4 °F - 71.6 °F 94% 30.01 in 2.0 mi Calm Calm - N/A   Clear
10:27 PM 73.4 °F - 71.6 °F 94% 30.01 in 5.0 mi NE 3.5 mph - N/A   Scattered Clouds
10:56 PM 73.9 °F - 71.1 °F 91% 30.00 in 8.0 mi NNE 4.6 mph - N/A   Overcast
11:56 PM 72.0 °F - 70.0 °F 93% 29.97 in 2.5 mi Calm Calm - N/A   Clear